Probability
0 0 0 0 0 0 0 0 0 0 0 0 0 0 0 0 0 0 0 0 0 0 0 0 0 0 0 0 0 0 0 0 0 0 0 0 0 0 0 0 0 0 0 0
0 0 0 0 0 0 0 0 0 0 0 0 0 0 0 0 0 0 0 0 0 0 0 0 0 0 0 0 0 0 0 0 0 0 0 0 0 0 0 0 0 0 0 0
0 0 0 0 0 0 0 0 0 0 0 0 0 0 0 0 0 0 0 0 0 0 0 0 0 0 0 0 0 0 0 0 0 0 0 0 0 0 0 0 0 0 0 0
0 0 0 0 0 0 0 0 0 0 0 0 0 0 0 0 0 0 0 0 0 0 0 0 0 0 0 0 0 0 0 0 0 0 0 0 0 0 0 0 0 0 0 0
0 0 0 0 0 0 0 0 0 0 0 0 0 0 0 0 0 0 0 0 0 0 0 0 0 0 0 0 0 0 0 0 0 0 0 0 0 0 0 0 0 0 0 0
0 0 0 0 0 0 0 0 0 0 0 0 0 0 0 0 0 0 0 0 0 0 0 0 0 0 0 0 0 0 0 0 0 0 0 0 0 0 0 0 0 0 0 0
0 0 0 0 0 0 0 0 0 0 0 0 0 0 0 0 0 0 0 0 0 0 0 0 0 0 0 0 0 0 0 0 0 0 0 0 0 0 0 0 0 0 0 0
0 0 0 0 0 0 0 0 0 0 0 0 0 0 0 0 0 0 0 0 0 0 0 0 0 0 0 0 0 0 0 0 0 0 0 0 0 0 0 0 0 0 0 0
0 0 0 0 0 0 0 0 0 0 0 0 0 0 0 0 0 0 0 0 0 0 0 0 0 0 0 0 0 0 0 0 0 0 0 0 0 0 0 0 0 0 0 0
0 0 0 0 0 0 0 0 0 0 0 0 0 0 0 0 0 0 0 0 0 0 0 0 0 0 0 0 0 0 0 0 0 0 0 0 0 0 0 0 0 0 0 0
0 0 0 0 0 0 0 0 0 0 0 0 0 0 0 0 0 0 0 0 0 0 0 0 0 0 0 0 0 0 0 0 0 0 0 0 0 0 0 0 0 0 0 0
0 0 0 0 0 0 0 0 0 0 0 0 0 0 0 0 0 0 0 0 0 0 0 0 0 0 0 0 0 0 0 0 0 0 0 0 0 0 0 0 0 0 0 0
0 0 0 0 0 0 0 0 0 0 0 0 0 0 0 0 0 0 0 0 0 0 0 0 0 0 0 0 0 0 0 0 0 0 0 0 0 0 0 0 0 0 0 0
0 0 0 0 0 0 0 0 0 0 0 0 0 0 0 0 0 0 0 0 0 0 0 0 0 0 0 0 0 0 0 0 0 0 0 0 0 0 0 0 0 0 0 0
0 0 0 0 0 0 0 0 0 0 0 0 0 0 0 0 0 0 0 0 0 0 0 0 0 0 0 0 0 0 0 0 0 0 0 0 0 0 0 0 0 0 0 0
0 0 0 0 0 0 0 0 0 0 0 0 0 0 0 0 0 0 0 0 0 0 0 0 0 0 0 0 0 0 0 0 0 0 0 0 0 0 0 0 0 0 0 0
0 0 0 0 0 0 0 0 0 0 0 0 0 0 0 0 0 0 0 0 0 0 0 0 0 0 0 0 0 0 0 0 0 0 0 0 0 0 0 0 0 0 0 0
0 0 0 0 0 0 0 0 0 0 0 0 0 0 0 0 0 0 0 0 0 0 0 0 0 0 0 0 0 0 0 0 0 0 0 0 0 0 0 0 0 0 0 0
0 0 0 0 0 0 0 0 0 0 0 0 0 0 0 0 0 0 0 0 0 0 0 0 0 0 0 0 0 0 0 0 0 0 0 0 0 0 0 0 0 0 0 0
0 0 0 0 0 0 0 0 0 0 0 0 0 0 0 0 0 0 0 0 0 0 0 0 0 0 0 0 0 0 0 0 0 0 0 0 0 0 0 0 0 0 0 0
0 0 0 0 0 0 0 0 0 0 0 0 0 0 0 0 0 0 0 0 0 0 0 0 0 0 0 0 0 0 0 0 0 0 0 0 0 0 0 0 0 0 0 0
0 0 0 0 0 0 0 0 0 0 0 0 0 0 0 0 0 0 0 0 0 0 0 0 0 0 0 0 0 0 0 0 0 0 0 0 0 0 0 0 0 0 0 0
0 0 0 0 0 0 0 0 0 0 0 0 0 0 0 0 0 0 0 0 0 0 0 0 0 0 0 0 0 0 0 0 0 0 0 0 0 0 0 0 0 0 0 0
0 0 0 0 0 0 0 0 0 0 0 0 0 0 0 0 0 0 0 0 0 0 0 0 0 0 0 0 0 0 0 0 0 0 0 0 0 0 0 0 0 0 0 0
0 0 0 0 0 0 0 0 0 0 0 0 0 0 0 0 0 0 0 0 0 0 0 0 0 0 0 0 0 0 0 0 0 0 0 0 0 0 0 0 0 0 0 0
0 0 0 0 0 0 0 0 0 0 0 0 0 0 0 0 0 0 0 0 0 0 0 0 0 0 0 0 0 0 0 0 0 0 0 0 0 0 0 0 0 0 0 0
0 0 0 0 0 0 0 0 0 0 0 0 0 0 0 0 0 0 0 0 0 0 0 0 0 0 0 0 0 0 0 0 0 0 0 0 0 0 0 0 0 0 0 0
Wind_Speed
13 12 10 13 16 12 14 15 15 18 19 22 17 13 11 10 9 9 9 10 9 9 9 9 9 9 9 9 9 9 9 8 7 5 4 2 1 2 3 4 4 5 7 8
11 11 13 19 20 18 18 17 19 20 23 19 15 10 9 9 9 9 10 10 10 10 10 9 9 9 9 9 9 8 8 7 7 5 5 3 2 1 2 2 3 4 6 7
9 6 7 15 16 15 12 11 11 17 19 12 10 9 9 8 7 8 9 9 9 9 8 8 8 8 9 9 9 8 8 7 6 6 5 4 3 2 2 2 2 3 4 6
6 3 13 13 6 8 11 13 13 13 12 11 11 9 8 7 6 8 8 8 8 7 7 7 7 7 8 8 8 8 8 8 7 6 5 4 3 3 3 2 2 3 4 5
4 7 14 11 6 6 8 11 10 11 12 9 7 5 6 5 5 6 6 6 6 6 6 7 8 8 8 8 8 7 8 8 7 6 6 5 4 4 3 2 2 3 3 5
7 7 11 10 5 3 2 9 8 7 9 7 1 4 7 5 5 6 6 5 5 6 6 6 7 7 7 8 8 8 8 8 7 6 6 5 4 4 4 3 3 2 2 3
11 11 13 9 4 4 4 10 5 5 7 5 6 8 7 6 6 6 6 6 5 5 5 6 7 7 7 8 8 8 8 8 7 6 6 5 5 3 3 3 2 2 2 2
8 11 15 6 7 9 11 5 4 5 6 6 7 8 7 7 6 6 5 5 5 4 5 6 6 6 7 8 9 8 7 8 7 7 6 4 4 3 2 2 2 1 1 1
12 13 7 6 9 8 4 5 6 5 6 6 6 7 7 6 6 6 6 5 5 5 6 6 5 5 7 8 9 8 7 7 7 7 6 4 4 3 3 2 1 1 1 1
8 11 10 8 7 6 6 7 7 6 6 5 6 7 7 6 5 5 5 5 4 4 5 6 6 5 6 7 8 7 7 7 6 6 6 5 4 2 2 2 1 1 1 1
9 9 6 7 9 10 8 6 6 5 5 6 6 6 6 5 6 5 5 4 4 4 5 6 6 6 6 6 7 7 6 5 5 5 5 5 4 3 3 3 3 2 2 2
11 9 7 7 6 7 7 7 6 6 5 5 5 6 6 6 5 5 4 4 4 5 5 6 6 6 6 6 6 6 6 5 4 4 4 4 4 5 5 4 4 3 3 3
11 7 7 7 6 6 7 7 6 6 6 6 5 5 5 5 4 4 4 3 4 5 5 6 6 6 6 6 7 7 6 6 5 4 4 4 4 4 4 5 4 3 2 1
7 6 7 7 7 6 6 5 5 4 4 4 4 3 3 4 3 3 4 4 4 5 5 5 6 6 6 6 7 7 6 7 6 4 4 4 3 3 2 2 3 3 3 2
7 7 8 6 5 4 3 3 3 4 4 3 3 3 3 3 4 4 4 4 4 4 5 5 6 7 6 6 6 7 6 5 4 4 4 4 3 2 2 2 1 2 2 2
5 5 5 5 5 5 3 3 4 5 4 3 3 3 3 4 4 4 4 3 4 5 5 5 6 7 6 6 7 6 5 9 8 4 4 4 3 1 1 1 1 1 1 1
4 5 5 5 5 5 5 5 5 4 3 3 3 3 3 3 3 4 4 4 4 5 5 6 7 7 6 6 6 5 5 6 9 5 4 3 2 1 1 1 1 1 1 0
5 5 5 5 5 4 4 3 3 3 3 3 2 2 2 3 4 5 5 5 5 6 6 6 7 7 6 6 5 5 4 4 4 4 4 3 2 1 1 1 1 1 0 1
2 3 3 3 3 3 2 2 2 2 1 1 1 2 3 3 4 4 5 5 6 7 7 6 10 7 6 7 7 4 4 4 4 4 4 4 3 1 1 1 1 1 1 1
1 1 1 1 0 0 1 1 0 1 1 1 1 2 3 3 4 4 4 5 5 6 7 8 7 5 5 6 8 4 4 4 4 4 3 2 2 1 0 1 1 1 1 2
1 1 1 1 1 1 0 0 0 1 2 1 2 3 4 4 4 4 4 5 5 6 7 9 6 5 5 6 8 4 4 4 3 3 3 2 1 1 1 1 1 1 2 2
1 1 1 1 1 1 1 1 1 1 2 2 2 3 3 4 5 4 5 5 6 9 6 4 4 7 9 9 4 4 4 4 3 3 2 2 1 1 1 1 1 2 2 3
1 1 1 1 1 1 1 1 1 1 2 3 3 3 4 4 3 4 5 4 4 8 6 4 8 11 12 6 4 4 4 4 3 3 2 1 1 1 1 1 2 2 3 3
1 1 0 0 0 0 1 2 2 2 3 3 3 4 4 4 4 4 4 8 10 10 5 7 12 12 10 4 3 4 4 3 3 2 1 1 1 1 1 2 2 3 3 4
1 1 0 0 0 1 2 2 3 3 3 3 4 4 3 3 4 4 4 5 9 9 5 8 11 11 6 4 3 4 3 3 3 1 1 2 2 2 2 2 2 3 3 3
1 1 1 1 2 2 1 1 2 2 3 3 4 3 3 3 4 4 4 4 6 8 6 4 5 6 4 4 4 4 4 3 2 1 1 1 2 2 2 2 3 3 3 3
0 0 1 1 2 1 1 2 2 3 3 3 4 4 4 4 4 4 4 4 4 4 4 4 4 3 4 4 4 4 3 2 1 0 1 2 2 2 3 3 3 3 3 4
Wind_Direction
251 261 258 256 259 242 228 231 241 258 264 273 279 283 284 287 292 301 307 312 315 317 318 321 327 329 328 327 330 330 332 332 325 317 321 307 276 250 225 217 221 214 200 191
266 255 257 265 261 250 244 240 243 259 268 268 276 277 281 285 290 297 303 308 314 317 320 322 325 327 327 327 327 327 326 325 325 325 328 316 290 297 254 237 226 219 203 195
268 274 285 262 246 235 230 224 222 244 257 274 282 277 274 276 281 286 293 302 308 310 311 316 320 323 323 321 323 325 322 322 327 328 323 317 309 304 280 270 243 226 212 199
269 290 251 247 228 221 235 247 237 245 260 266 264 270 271 264 267 278 287 296 301 305 309 311 315 320 322 323 322 322 327 326 326 329 320 319 310 290 278 267 265 239 219 206
239 256 271 279 251 207 217 258 241 240 258 268 274 298 290 271 266 265 274 283 285 289 294 306 314 319 326 327 328 329 328 325 324 322 321 316 312 301 288 278 287 273 221 204
223 240 254 253 237 185 132 274 254 225 248 263 271 288 279 280 279 278 282 286 288 294 300 309 314 322 328 328 330 329 324 319 316 313 310 308 300 298 295 276 276 285 246 206
229 244 261 254 216 134 200 249 247 220 234 233 220 235 262 280 277 273 279 285 291 298 303 305 313 324 326 325 323 317 314 316 315 314 309 303 304 297 295 284 277 285 248 207
206 229 250 217 160 194 223 237 237 229 226 233 245 259 267 269 271 278 285 290 294 296 300 304 312 322 321 318 314 315 315 320 321 319 317 316 314 308 301 284 244 252 234 189
204 222 236 191 204 225 221 230 241 237 238 239 251 259 264 264 266 271 275 280 286 287 297 304 308 312 310 310 317 319 320 321 321 323 323 321 317 316 318 298 247 232 215 184
241 253 249 247 248 253 240 239 246 241 241 238 248 259 265 266 270 273 275 277 281 291 299 305 307 307 302 308 317 320 318 316 320 324 324 321 319 313 312 296 268 240 226 193
245 260 273 259 241 244 249 248 249 248 246 244 248 259 259 262 266 269 274 279 280 282 289 297 305 309 312 316 320 319 313 310 314 315 315 315 318 313 302 283 273 254 227 214
239 231 223 245 240 235 240 243 241 243 252 255 246 254 258 259 262 265 270 277 283 287 293 298 304 307 310 316 316 315 313 312 310 308 309 311 316 320 315 296 300 300 269 241
240 247 238 251 255 241 236 240 240 238 244 255 256 252 257 264 267 269 274 278 279 285 292 298 304 305 309 318 316 310 305 304 302 299 301 304 307 309 320 343 350 356 1 1
241 249 259 254 252 246 236 239 242 249 248 245 251 260 264 268 275 278 276 275 279 286 291 294 298 300 307 312 309 305 302 298 299 290 291 290 287 291 291 312 338 351 1 25
242 232 239 250 251 250 242 239 250 259 259 259 255 260 267 272 275 278 282 287 291 293 295 298 300 303 308 307 307 306 304 296 292 288 287 284 281 282 284 299 327 335 350 15
245 245 243 243 244 246 242 237 239 251 253 254 261 268 270 273 277 285 291 297 297 296 299 301 299 301 305 305 306 304 299 300 301 295 292 286 278 266 274 290 308 319 336 59
229 247 245 248 245 244 237 234 233 241 246 251 259 273 287 295 299 301 302 299 290 287 290 291 293 298 301 303 303 298 297 300 303 302 294 287 273 255 255 267 264 289 279 260
223 233 234 229 232 237 244 244 238 240 248 257 267 280 285 287 291 296 300 303 303 299 294 291 294 300 301 302 300 294 293 292 293 292 292 288 276 256 246 246 239 252 123 77
234 239 240 235 224 214 223 236 247 257 268 271 275 275 277 283 289 295 300 305 304 302 301 302 307 311 305 302 304 292 289 289 290 290 290 284 277 253 236 225 237 199 134 122
93 81 89 57 44 153 199 244 267 295 291 277 280 290 295 298 301 304 303 292 284 285 295 302 304 300 299 300 305 293 288 286 287 288 288 273 258 247 226 234 221 161 124 121
110 90 83 72 36 28 13 217 218 280 297 291 275 279 287 296 302 302 300 296 296 298 301 304 307 303 302 303 304 296 288 285 284 283 278 264 246 237 226 180 163 153 133 126
154 131 115 100 84 354 337 334 284 279 297 301 297 294 296 298 300 295 277 273 292 307 310 298 298 303 308 308 300 293 287 283 279 278 271 247 225 214 186 161 156 139 129 125
192 187 183 201 214 274 326 330 313 298 291 291 291 288 284 282 284 290 296 295 297 307 310 297 303 308 310 309 300 294 290 284 278 272 261 237 196 168 161 155 145 136 131 127
196 198 222 270 72 6 311 306 310 305 295 291 286 281 279 287 286 270 271 296 309 311 308 306 310 312 315 312 301 296 292 288 284 274 227 172 149 147 155 153 143 135 130 127
193 189 179 149 244 265 274 298 312 309 305 300 297 293 283 267 268 283 287 291 303 312 310 310 312 315 317 313 306 300 296 290 285 262 166 151 150 151 154 149 141 135 132 131
203 226 240 243 250 261 273 283 289 296 302 304 305 302 300 292 283 285 289 292 296 308 310 306 309 312 313 308 305 302 300 303 308 310 145 148 142 142 143 136 134 137 135 132
293 283 292 298 291 271 268 272 279 288 290 292 298 302 303 302 300 299 299 301 304 306 304 305 307 306 306 308 307 305 306 310 311 235 156 149 146 145 144 142 141 140 141 142